Regional Weather Roundup
Issued by NWS Jackson, KY

Home | Current Version | Previous Version | Graphics & Text | Print | Product List | Glossary On
Versions: 1 2 3 4 5 6 7 8 9 10 11 12 13 14 15 16 17 18 19 20 21 22 23 24 25 26 27 28 29 30 31 32 33 34 35 36 37 38 39 40 41 42 43 44 45 46 47 48 49 50
000
ASUS43 KJKL 210410
RWRJKL

EAST KENTUCKY HOURLY WEATHER ROUNDUP
NATIONAL WEATHER SERVICE JACKSON KY
1200 AM EDT SAT OCT 21 2017

NOTE: "FAIR" INDICATES FEW OR NO CLOUDS BELOW 12,000 FEET WITH
NO SIGNIFICANT WEATHER AND/OR OBSTRUCTIONS TO VISIBILITY.

* THESE REPORTS ARE NOT UNDER NWS QUALITY CONTROL AND MAY NOT
  REPORT WEATHER SUCH AS PRECIPITATION AND FOG.

KYZ079-080-083-085-087-088-110-112-115-119-120-210500
...EASTERN KENTUCKY...

CITY           SKY/WX    TMP DP  RH WIND       PRES   REMARKS
JACKSON        CLEAR     60  51  72 CALM      30.23F
LONDON         CLOUDY    52  49  89 CALM      30.23S
SOMERSET*      CLOUDY    50  50 100 CALM      30.23S
MONTICELLO*    CLOUDY    47  46  97 VRB6      30.23S
WILLIAMSBURG*  CLOUDY    52  52 100 CALM      30.22F
MIDDLESBORO*   CLEAR     48  48 100 CALM      30.26S
HARLAN APT*    CLEAR     50  48  93 CALM      30.26S
PIKE CO APT*     N/A     59  51  75 SE5       30.24F
BIG SANDY APT* CLEAR     55  54  95 CALM      30.24S
MOREHEAD APT*  CLEAR     57  52  82 SE5       30.24S
$$

KYZ035-036-041-042-044-050-067-078-099-210500
...CENTRAL KENTUCKY...

CITY           SKY/WX    TMP DP  RH WIND       PRES   REMARKS
MT STERLING*   CLOUDY    50  48  93 S3        30.23F
FLEMING/MASON* CLEAR     55  54  96 CALM      30.23S
DANVILLE*      CLOUDY    50  50 100 CALM      30.22S
LEXINGTON      CLOUDY    55  49  80 SE5       30.21S
FRANKFORT      CLOUDY    54  48  80 CALM      30.19S
LOUISVILLE     PTCLDY    62  52  69 CALM      30.17F
LEBANON*         N/A     57  50  77 SE3       30.20S
GLASGOW*       PTCLDY    52  52 100 CALM      30.19R
BOWLING GREEN  MOCLDY    55  53  93 CALM      30.17F
$$

KYZ091>093-OHZ055-061-077-WVZ005-015-034-035-042-210500
...SOUTHERN OHIO/WEST VIRGINIA...

CITY           SKY/WX    TMP DP  RH WIND       PRES   REMARKS
COVINGTON      PTCLDY    60  53  77 CALM      30.19F
COLUMBUS       PTCLDY    58  43  57 SE5       30.21S
DAYTON         PTCLDY    60  54  80 S9        30.20F
WILMINGTON     CLEAR     55  50  83 S3        30.22R
HUNTINGTON     CLEAR     54  51  90 E5        30.23S
CHARLESTON     CLEAR     51  49  92 CALM      30.24S
PINEVILLE*     CLEAR     49  46  92 MISG      30.32F
BECKLEY        CLEAR     52  45  77 SE5       30.30R
BLUEFIELD      CLEAR     58  43  57 SE3       30.31S
LOGAN CO APT*    N/A     57  50  77 CALM      30.25F
$$

VAZ002-007-008-TNZ017-027-036-066-071-210500
...SOUTHWEST VIRGINIA/EAST TENNESSEE...

CITY           SKY/WX    TMP DP  RH WIND       PRES   REMARKS
WISE*          CLEAR     54  45  71 CALM      30.30S
JONESVILLE*      N/A     48  46  93 CALM      30.28S
ABINGDON*      CLEAR     54  48  81 E5        30.28S
BRISTOL        PTCLDY    50  49  96 CALM      30.26S
MORRISTOWN*    CLEAR     55  46  71 N3        30.23F
SEVIERVILLE*   CLEAR     50  48  93 CALM      30.23S
KNOXVILLE      MOCLDY    58  54  86 CALM      30.22S
LAFOLLETTE*    CLEAR     50  50 100 CALM      30.27F
OAK RIDGE      CLEAR     53  53 100 CALM      30.25R
CROSSVILLE     CLOUDY    51  47  86 CALM      30.25S
NASHVILLE      PTCLDY    57  50  77 S5        30.18R
$$

...KEY TO REMARKS...
VSB - VISIBILITY IN MILES
WCI - WIND CHILL INDEX
HX  - HEAT INDEX

$$



USA.gov is the U.S. government's official web portal to all federal, state and local government web resources and services.